• în România
  • Lista ţărilor
  • Pe 7 zile
  • Temperatura apei
  • Hartă satelitară
  • Meteo pe hartă
  • Widget-uri
  • user-avatar
    Intrare

    Meteo pe oră la Szeged

    Astăzi, 23 Mai, Miercuri

    Timp Temperatura Precipitaţii Vânt Presiune Umiditate
    00:00 +18°C° 0 mm 3 m/s 755 mmHg 79%
    01:00 +18°C° 0 mm 3 m/s 755 mmHg 75%
    02:00 +17°C° 0,2 mm 3 m/s 755 mmHg 76%
    03:00 +17°C° 0,2 mm 3 m/s 756 mmHg 78%
    04:00 +17°C° 0,2 mm 3 m/s 756 mmHg 79%
    05:00 +18°C° 0,2 mm 3 m/s 756 mmHg 76%
    06:00 +19°C° 0,2 mm 3 m/s 756 mmHg 73%
    07:00 +20°C° 0 mm 4 m/s 756 mmHg 70%
    08:00 +22°C° 0,2 mm 4 m/s 756 mmHg 66%
    09:00 +23°C° 0,2 mm 4 m/s 756 mmHg 62%
    10:00 +26°C° 0,2 mm 4 m/s 756 mmHg 59%
    11:00 +27°C° 0 mm 4 m/s 756 mmHg 56%
    12:00 +28°C° 0 mm 4 m/s 756 mmHg 53%
    13:00 +29°C° 0 mm 4 m/s 756 mmHg 50%
    14:00 +29°C° 0 mm 3 m/s 755 mmHg 51%
    15:00 +28°C° 0 mm 3 m/s 755 mmHg 53%
    16:00 +28°C° 0 mm 3 m/s 754 mmHg 54%
    17:00 +27°C° 0,4 mm 3 m/s 754 mmHg 59%
    18:00 +25°C° 0,4 mm 2 m/s 754 mmHg 64%
    19:00 +24°C° 0,4 mm 2 m/s 754 mmHg 70%
    20:00 +23°C° 0,6 mm 2 m/s 755 mmHg 73%
    21:00 +21°C° 0,6 mm 2 m/s 755 mmHg 76%
    22:00 +21°C° 0,6 mm 1 m/s 755 mmHg 79%
    23:00 +21°C° 0,2 mm 1 m/s 755 mmHg 81%

    Mâine, 24 Mai, Joi

    Timp Temperatura Precipitaţii Vânt Presiune Umiditate
    00:00 +20°C° 0,2 mm 1 m/s 755 mmHg 83%
    01:00 +20°C° 0,2 mm 1 m/s 755 mmHg 85%
    02:00 +19°C° 0,1 mm 1 m/s 755 mmHg 86%
    03:00 +18°C° 0,1 mm 2 m/s 755 mmHg 87%
    04:00 +18°C° 0,1 mm 2 m/s 755 mmHg 88%
    05:00 +19°C° 0,2 mm 2 m/s 755 mmHg 84%
    06:00 +20°C° 0,2 mm 2 m/s 755 mmHg 80%
    07:00 +23°C° 0,2 mm 2 m/s 756 mmHg 76%
    08:00 +24°C° 0,6 mm 2 m/s 756 mmHg 70%
    09:00 +25°C° 0,6 mm 2 m/s 755 mmHg 64%
    10:00 +27°C° 0,6 mm 2 m/s 755 mmHg 58%
    11:00 +28°C° 0,2 mm 2 m/s 755 mmHg 55%
    12:00 +28°C° 0,2 mm 2 m/s 755 mmHg 53%
    13:00 +29°C° 0,2 mm 2 m/s 755 mmHg 50%
    14:00 +29°C° 0,1 mm 2 m/s 754 mmHg 51%
    15:00 +29°C° 0,1 mm 2 m/s 754 mmHg 52%
    16:00 +28°C° 0,1 mm 2 m/s 754 mmHg 53%
    17:00 +27°C° 0,3 mm 2 m/s 754 mmHg 60%
    18:00 +25°C° 0,3 mm 2 m/s 754 mmHg 68%
    19:00 +24°C° 0,3 mm 2 m/s 754 mmHg 75%
    20:00 +23°C° 0,1 mm 2 m/s 754 mmHg 78%
    21:00 +21°C° 0,1 mm 2 m/s 754 mmHg 81%
    22:00 +20°C° 0,1 mm 2 m/s 755 mmHg 84%
    23:00 +20°C° 0 mm 2 m/s 755 mmHg 86%

    Poimâine, 25 Mai, Vineri

    Timp Temperatura Precipitaţii Vânt Presiune Umiditate
    00:00 +19°C° 0 mm 2 m/s 754 mmHg 87%
    01:00 +20°C° 0 mm 1 m/s 754 mmHg 89%
    02:00 +19°C° 0,2 mm 1 m/s 754 mmHg 90%
    03:00 +18°C° 0,2 mm 2 m/s 754 mmHg 91%
    04:00 +17°C° 0,2 mm 2 m/s 754 mmHg 92%
    05:00 +19°C° 0,1 mm 2 m/s 755 mmHg 88%
    06:00 +20°C° 0,1 mm 2 m/s 755 mmHg 84%
    07:00 +21°C° 0,1 mm 2 m/s 755 mmHg 80%
    08:00 +24°C° 0,5 mm 2 m/s 755 mmHg 74%
    09:00 +25°C° 0,5 mm 1 m/s 755 mmHg 68%
    10:00 +27°C° 0,5 mm 1 m/s 755 mmHg 62%
    11:00 +28°C° 0,2 mm 1 m/s 755 mmHg 57%
    12:00 +28°C° 0,2 mm 1 m/s 755 mmHg 53%
    13:00 +29°C° 0,2 mm 1 m/s 755 mmHg 48%
    14:00 +29°C° 0 mm 1 m/s 755 mmHg 49%
    15:00 +29°C° 0 mm 1 m/s 755 mmHg 49%
    16:00 +29°C° 0 mm 1 m/s 754 mmHg 49%
    17:00 +27°C° 0 mm 2 m/s 755 mmHg 55%
    18:00 +26°C° 0 mm 2 m/s 755 mmHg 62%
    19:00 +25°C° 0 mm 2 m/s 755 mmHg 68%
    20:00 +24°C° 0,3 mm 2 m/s 755 mmHg 71%
    21:00 +23°C° 0,3 mm 2 m/s 756 mmHg 75%
    22:00 +21°C° 0,3 mm 2 m/s 756 mmHg 79%
    23:00 +20°C° 0,2 mm 2 m/s 756 mmHg 81%

    26 Mai, Sâmbătă

    Timp Temperatura Precipitaţii Vânt Presiune Umiditate
    00:00 +21°C° 0,2 mm 1 m/s 756 mmHg 83%
    01:00 +21°C° 0,2 mm 1 m/s 756 mmHg 85%
    02:00 +20°C° 0,1 mm 1 m/s 757 mmHg 86%
    03:00 +20°C° 0,1 mm 1 m/s 757 mmHg 87%
    04:00 +20°C° 0,1 mm 1 m/s 757 mmHg 88%
    05:00 +21°C° 0 mm 1 m/s 757 mmHg 84%
    06:00 +22°C° 0 mm 1 m/s 757 mmHg 80%
    07:00 +23°C° 0 mm 1 m/s 758 mmHg 76%
    08:00 +25°C° 0,3 mm 2 m/s 758 mmHg 70%
    09:00 +26°C° 0,3 mm 2 m/s 758 mmHg 64%
    10:00 +27°C° 0,3 mm 2 m/s 758 mmHg 58%
    11:00 +28°C° 0 mm 2 m/s 758 mmHg 54%
    12:00 +29°C° 0 mm 2 m/s 758 mmHg 50%
    13:00 +30°C° 0 mm 2 m/s 758 mmHg 46%
    14:00 +30°C° 0 mm 2 m/s 757 mmHg 47%
    15:00 +30°C° 0 mm 2 m/s 757 mmHg 47%
    16:00 +30°C° 0 mm 2 m/s 757 mmHg 47%
    17:00 +28°C° 0 mm 2 m/s 757 mmHg 54%
    18:00 +27°C° 0 mm 2 m/s 757 mmHg 60%
    19:00 +25°C° 0 mm 2 m/s 758 mmHg 67%
    20:00 +24°C° 0,1 mm 2 m/s 758 mmHg 70%
    21:00 +24°C° 0,1 mm 2 m/s 758 mmHg 74%
    22:00 +22°C° 0,1 mm 3 m/s 758 mmHg 77%
    23:00 +21°C° 0,1 mm 3 m/s 758 mmHg 79%

    27 Mai, Duminică

    Timp Temperatura Precipitaţii Vânt Presiune Umiditate
    00:00 +20°C° 0,1 mm 3 m/s 758 mmHg 82%
    01:00 +20°C° 0,1 mm 4 m/s 758 mmHg 84%
    02:00 +19°C° 0,2 mm 3 m/s 758 mmHg 85%
    03:00 +19°C° 0,2 mm 3 m/s 758 mmHg 86%
    04:00 +19°C° 0,2 mm 3 m/s 758 mmHg 88%
    05:00 +20°C° 0 mm 4 m/s 759 mmHg 83%
    06:00 +21°C° 0 mm 5 m/s 759 mmHg 78%
    07:00 +22°C° 0 mm 5 m/s 759 mmHg 74%
    08:00 +23°C° 0 mm 5 m/s 759 mmHg 69%
    09:00 +25°C° 0 mm 5 m/s 759 mmHg 65%
    10:00 +26°C° 0 mm 5 m/s 759 mmHg 61%
    11:00 +27°C° 0,1 mm 5 m/s 759 mmHg 58%
    12:00 +28°C° 0,1 mm 4 m/s 758 mmHg 56%
    13:00 +29°C° 0,1 mm 4 m/s 758 mmHg 53%
    14:00 +28°C° 0,6 mm 4 m/s 758 mmHg 55%
    15:00 +28°C° 0,6 mm 3 m/s 757 mmHg 57%
    16:00 +28°C° 0,6 mm 3 m/s 757 mmHg 59%
    17:00 +26°C° 0,5 mm 3 m/s 757 mmHg 65%
    18:00 +25°C° 0,5 mm 3 m/s 757 mmHg 72%
    19:00 +22°C° 0,5 mm 3 m/s 757 mmHg 78%
    20:00 +21°C° 0 mm 3 m/s 757 mmHg 78%
    21:00 +21°C° 0 mm 3 m/s 758 mmHg 79%
    22:00 +20°C° 0 mm 3 m/s 758 mmHg 79%
    23:00 +19°C° 0 mm 3 m/s 758 mmHg 78%

    28 Mai, Luni

    Timp Temperatura Precipitaţii Vânt Presiune Umiditate
    00:00 +18°C° 0 mm 3 m/s 758 mmHg 77%
    01:00 +18°C° 0 mm 3 m/s 758 mmHg 76%
    02:00 +17°C° 0 mm 3 m/s 758 mmHg 76%
    03:00 +17°C° 0 mm 3 m/s 758 mmHg 76%
    04:00 +16°C° 0 mm 2 m/s 758 mmHg 75%
    05:00 +18°C° 0 mm 3 m/s 758 mmHg 72%
    06:00 +19°C° 0 mm 3 m/s 758 mmHg 68%
    07:00 +20°C° 0 mm 4 m/s 759 mmHg 65%
    08:00 +22°C° 0 mm 3 m/s 759 mmHg 62%
    09:00 +24°C° 0 mm 3 m/s 759 mmHg 59%
    10:00 +25°C° 0 mm 3 m/s 759 mmHg 56%
    11:00 +26°C° 0,1 mm 3 m/s 758 mmHg 55%
    12:00 +27°C° 0,1 mm 3 m/s 758 mmHg 53%
    13:00 +27°C° 0,1 mm 2 m/s 757 mmHg 51%
    14:00 +27°C° 0,2 mm 2 m/s 757 mmHg 52%
    15:00 +27°C° 0,2 mm 2 m/s 757 mmHg 53%
    16:00 +27°C° 0,2 mm 2 m/s 756 mmHg 54%
    17:00 +26°C° 0,2 mm 2 m/s 756 mmHg 59%
    18:00 +25°C° 0,2 mm 2 m/s 757 mmHg 65%
    19:00 +23°C° 0,2 mm 1 m/s 757 mmHg 70%
    20:00 +22°C° 0 mm 1 m/s 757 mmHg 71%
    21:00 +21°C° 0 mm 1 m/s 757 mmHg 73%
    22:00 +21°C° 0 mm 1 m/s 757 mmHg 74%
    23:00 +20°C° 0 mm 1 m/s 757 mmHg 74%
    Arată mai mult